Theta_e
317 318 317 316 316 317 317 317 318 318 318 319 319 319 320 320 320 321 321 321 322 323 324 324 325 325 326 325 326 325 322 327 318 316 313 320 329 333 335 338 338 338 335 324 312 311 309 310 309 311 311 312 312 311 311 313 311 313 304 302 300 302 301 305 302 303 306 303 304 303 305 304 302 304 305 307 305 305 307 306 308 310 309 311 310 312 325 326
318 316 316 316 316 316 317 317 317 318 318 318 319 319 319 320 320 320 321 321 321 322 323 324 325 325 326 325 325 324 323 323 314 310 319 327 330 333 336 337 338 337 330 317 311 310 308 307 309 310 309 306 313 309 311 310 312 307 304 303 300 303 305 307 305 306 304 304 305 305 305 305 304 305 306 303 304 304 304 305 307 307 309 310 310 314 322 324
317 315 315 316 316 316 316 316 317 317 318 318 319 319 319 319 319 320 320 321 321 322 323 324 325 325 325 325 324 320 322 318 311 307 318 329 331 333 335 335 336 336 320 314 313 312 309 309 309 309 308 306 308 306 310 308 309 307 307 301 301 307 305 307 306 305 306 305 305 304 305 305 306 306 308 303 303 305 303 303 305 305 306 308 310 311 320 324
316 315 315 315 315 315 315 316 316 317 317 318 318 319 319 319 320 320 321 321 321 322 322 323 324 325 325 324 323 325 318 313 304 311 320 331 332 333 333 332 333 331 321 315 313 312 311 310 310 309 306 305 305 308 304 307 306 307 302 301 303 304 303 304 306 305 305 306 305 305 304 303 305 306 306 304 302 303 305 307 306 306 307 309 310 311 318 321
314 314 315 314 314 315 315 316 317 317 317 318 318 319 319 319 319 320 320 321 321 321 322 323 324 325 324 325 322 322 322 301 303 314 323 330 331 332 332 329 327 317 315 313 312 311 311 309 308 308 306 304 305 304 305 305 307 306 302 303 304 304 302 303 305 304 304 303 306 305 302 303 307 305 304 305 301 302 305 307 309 309 311 310 310 311 316 319
314 314 315 314 314 314 315 315 316 316 317 318 318 318 319 319 319 320 320 321 321 321 322 323 324 324 324 323 326 324 309 293 308 318 324 327 329 327 327 324 326 317 312 312 312 310 309 308 308 304 304 304 303 301 304 306 306 300 303 304 304 304 304 304 304 302 303 305 304 303 305 306 304 304 306 305 304 306 307 309 310 309 310 314 313 313 314 317
315 315 314 313 314 314 313 314 315 316 317 317 317 318 318 319 319 319 320 320 321 321 321 323 323 324 323 321 324 316 307 306 310 322 327 327 326 323 323 322 326 313 313 311 310 309 308 307 307 305 304 304 303 304 304 304 306 303 302 303 302 303 303 303 303 301 303 303 304 305 305 303 304 301 306 304 307 309 309 309 310 309 307 310 313 313 313 316
315 315 314 313 313 313 313 314 313 314 315 315 316 317 318 319 319 319 319 320 321 321 322 322 323 323 321 326 313 307 306 307 317 322 323 325 319 315 320 317 316 316 313 311 310 308 308 305 304 306 303 301 303 303 304 304 304 302 302 303 302 303 303 303 302 302 302 303 304 304 303 304 305 304 303 304 307 308 309 309 308 309 308 307 310 313 313 315
315 314 313 313 311 312 313 313 313 314 314 315 316 316 317 318 319 319 319 320 321 321 321 322 322 322 319 316 310 303 302 315 321 320 320 317 315 313 318 316 316 314 311 312 310 311 309 306 307 306 302 303 305 303 304 303 300 305 303 303 303 303 303 303 302 302 302 304 303 302 303 305 303 303 302 305 307 309 310 309 309 309 307 307 308 311 312 313
314 313 312 312 312 312 312 312 313 314 314 315 315 316 317 318 318 318 319 320 321 321 321 322 321 320 317 314 306 299 312 319 321 320 317 314 313 313 315 315 315 313 311 310 311 310 308 307 308 308 308 304 306 303 304 303 301 305 304 304 304 303 303 303 303 303 303 304 303 302 303 303 303 302 300 307 309 309 308 307 308 308 308 308 308 309 311 312
314 314 313 313 313 313 313 313 313 314 314 315 315 316 317 317 318 318 319 320 320 321 321 321 321 320 320 310 302 299 316 321 320 317 314 314 314 314 316 315 314 313 312 311 311 311 311 310 311 310 310 304 305 303 304 303 305 305 305 304 303 303 304 303 304 303 303 302 303 303 302 304 303 303 301 307 306 308 307 307 308 307 307 308 309 309 311 311
315 315 314 314 313 313 313 314 314 315 315 315 316 316 316 317 317 318 319 319 321 321 322 321 320 318 311 305 302 307 314 318 317 316 316 317 313 311 313 313 313 317 314 310 312 314 314 312 312 307 302 308 302 303 302 305 305 304 305 300 302 303 302 303 303 304 304 302 303 304 302 301 302 300 305 307 306 307 307 307 307 308 308 309 310 310 311 312
316 316 316 315 314 314 314 314 314 315 315 316 316 316 316 317 318 318 319 319 320 322 321 321 321 320 311 301 308 314 317 317 314 313 314 316 314 314 314 315 315 314 316 312 311 312 312 313 311 307 308 307 304 301 304 306 305 305 304 303 300 300 300 304 305 304 303 303 304 303 294 299 302 304 306 308 307 306 306 306 307 308 308 309 310 310 311 311
317 316 316 316 315 315 314 314 315 315 316 316 316 316 317 317 318 318 319 319 321 322 321 319 322 316 307 301 310 315 318 319 314 313 315 315 315 316 315 316 315 315 316 312 312 312 314 311 313 309 310 306 303 307 305 304 304 301 302 302 299 298 298 303 304 303 301 303 303 303 295 298 303 306 307 306 307 306 305 306 307 308 308 309 310 310 309 310
317 317 317 316 316 315 315 316 316 316 316 316 316 316 317 317 318 319 320 320 321 321 319 318 322 312 302 303 310 317 322 319 313 315 316 314 313 312 312 314 313 313 313 313 311 311 312 314 311 306 304 306 307 304 301 302 302 303 297 295 300 297 300 301 303 303 300 301 304 302 296 298 302 305 304 305 304 305 304 306 307 308 308 309 309 309 310 310
318 317 317 317 317 316 316 316 316 317 317 317 316 317 317 318 318 319 320 320 321 318 320 325 316 309 303 299 312 324 317 310 310 316 316 313 316 311 314 312 313 313 313 311 313 313 313 312 307 306 304 304 303 302 300 300 299 301 297 299 298 298 299 299 300 302 301 302 302 301 297 301 301 305 305 304 305 304 304 305 307 308 308 308 308 309 309 310
318 318 317 317 317 317 317 317 317 317 317 317 317 317 318 319 319 320 320 319 321 320 323 309 308 306 298 306 311 308 308 314 313 316 315 313 312 313 313 312 310 310 312 312 314 314 311 308 305 307 307 303 303 302 297 295 296 297 299 296 300 296 297 295 299 301 303 301 299 301 298 299 302 304 306 304 306 305 304 306 307 307 308 308 309 309 309 309
318 318 318 317 318 318 318 317 318 318 317 317 316 317 317 319 320 319 321 321 323 317 313 311 311 306 299 302 302 304 312 312 314 310 312 312 312 313 313 310 310 310 311 309 311 308 309 305 305 302 302 302 302 300 294 292 295 296 297 295 296 297 297 296 297 299 301 300 299 300 299 300 302 304 305 306 307 305 305 305 306 306 307 308 308 309 309 310
319 318 318 318 318 318 318 318 318 318 317 317 318 319 318 318 323 323 312 310 304 300 297 300 299 294 293 300 308 310 313 311 314 314 309 311 312 313 313 313 312 307 305 303 304 306 307 306 305 302 297 298 298 299 297 298 297 296 298 297 297 296 296 296 298 299 300 299 298 298 297 299 301 303 305 306 307 306 306 307 306 306 307 307 307 308 309 310
319 319 318 318 318 318 318 318 318 318 317 317 319 318 315 311 309 304 308 306 303 303 305 303 303 303 302 305 308 311 314 314 307 311 313 311 311 310 309 310 311 308 304 299 303 303 306 300 297 297 298 300 301 301 300 299 298 297 298 297 295 296 297 299 299 299 300 297 297 298 299 299 300 302 304 305 306 305 305 305 305 306 306 307 307 308 309 310
319 319 319 318 318 318 318 318 318 317 316 318 316 311 299 301 297 296 301 302 309 303 307 304 306 305 305 309 310 309 306 306 311 309 311 313 312 309 305 306 304 300 302 305 303 304 304 297 298 300 301 302 302 302 300 299 298 297 297 297 295 298 295 299 298 298 300 297 297 299 299 299 300 302 303 304 304 303 304 304 306 306 306 307 308 309 310 311
320 319 319 319 318 318 318 318 318 317 314 317 315 307 303 305 311 310 308 297 303 308 305 307 306 306 308 310 312 312 312 305 306 309 312 312 308 304 304 303 301 298 304 302 301 299 297 295 298 301 302 302 301 300 300 298 297 298 296 297 296 297 300 300 298 298 299 297 296 299 297 298 300 301 303 303 303 304 305 306 306 306 307 307 308 309 309 311
320 320 320 319 319 319 319 319 318 317 316 313 310 309 307 315 316 316 311 303 301 307 304 303 301 303 306 309 310 311 304 302 301 307 308 311 306 305 304 300 300 299 301 301 296 296 294 297 300 302 302 299 299 299 299 298 298 297 297 295 294 299 294 292 296 298 298 297 295 297 295 297 300 301 302 304 304 304 306 306 307 308 307 307 308 309 309 310
320 320 320 319 319 319 319 318 318 316 314 313 312 312 317 317 316 316 312 298 297 301 303 305 304 303 305 302 310 307 303 303 305 304 312 309 304 306 304 301 299 299 298 299 298 296 296 299 301 301 300 299 297 298 297 296 295 299 298 297 296 297 298 295 295 298 299 298 298 296 296 297 300 299 301 305 306 306 306 307 307 308 310 310 312 312 312 309
320 319 319 319 318 319 318 318 314 314 315 312 310 315 317 318 316 315 309 298 297 299 306 304 308 306 306 310 312 305 305 304 305 310 311 309 305 301 301 305 301 297 298 300 299 297 297 300 302 299 299 298 298 296 297 298 294 296 300 298 297 297 296 297 298 296 294 294 296 298 290 291 299 301 301 303 305 304 306 305 306 307 308 309 308 309 311 312
320 319 319 319 319 319 319 313 314 315 312 311 313 317 317 317 317 312 306 294 289 298 299 295 306 299 312 304 309 307 303 298 307 310 311 310 310 305 302 300 301 296 298 299 298 298 298 299 301 300 298 299 299 297 299 299 295 294 295 300 299 297 298 298 296 296 290 288 296 298 288 286 296 296 299 301 301 301 304 305 306 307 308 308 310 310 310 311
320 319 319 319 319 319 312 312 318 314 310 313 317 317 316 317 318 313 296 291 287 299 295 303 299 301 309 305 305 304 291 296 307 308 309 309 305 309 299 298 299 300 302 302 296 293 299 297 299 300 299 299 297 294 300 299 295 293 297 300 298 299 298 298 297 297 294 299 299 296 295 288 289 295 299 300 299 300 301 303 304 306 308 309 309 310 311 311
320 320 319 319 319 317 319 317 313 311 312 314 317 316 317 317 317 311 295 281 282 303 297 296 301 307 307 307 307 299 298 302 297 302 307 308 307 303 300 299 298 298 299 299 289 302 298 297 298 298 298 296 295 297 302 301 296 297 297 301 299 297 299 298 297 295 296 294 289 294 297 289 289 296 300 300 297 298 300 302 304 306 309 310 311 310 309 308
319 319 318 319 318 318 318 318 316 314 316 317 316 317 316 317 311 300 290 280 300 298 309 296 309 304 303 305 299 300 299 301 298 303 307 307 307 304 297 300 301 300 301 299 293 298 297 300 300 300 298 295 299 297 300 301 296 297 300 300 300 301 300 298 296 295 294 290 287 292 296 288 288 295 297 300 298 298 300 302 304 306 310 311 310 309 308 306
318 319 319 319 318 316 315 316 315 317 318 317 317 317 316 312 303 290 283 277 303 292 299 299 298 296 300 296 296 298 297 298 301 302 305 302 304 305 301 303 301 299 298 299 299 298 298 298 299 300 298 299 297 297 297 301 300 300 302 300 299 298 298 296 296 294 290 286 289 296 296 292 286 294 296 296 297 299 301 302 305 308 310 309 308 308 309 306
316 318 318 318 315 316 315 311 316 315 317 318 317 316 311 307 293 287 280 289 301 298 298 296 295 300 295 294 292 296 297 299 299 301 298 302 300 302 301 298 303 299 297 297 296 298 298 298 298 300 297 299 300 296 299 299 301 303 299 296 296 294 295 293 291 292 285 284 293 295 295 295 285 291 297 299 302 301 303 301 302 304 306 309 309 306 305 306
317 317 318 317 320 319 312 311 314 317 317 318 316 308 305 291 294 285 285 299 289 295 295 293 298 296 295 297 296 293 293 298 299 299 297 297 297 295 296 292 295 288 289 290 290 298 295 296 300 298 299 299 299 297 295 299 299 300 296 295 288 286 288 284 288 284 284 284 289 291 295 292 290 293 298 301 301 302 303 303 303 304 305 311 309 307 307 307
316 316 317 318 317 316 318 316 314 313 314 317 312 307 298 288 280 290 293 295 290 300 295 301 295 295 295 295 294 295 298 293 299 298 300 299 297 297 299 297 299 295 287 293 292 291 293 299 298 299 296 299 300 293 292 291 295 295 293 292 287 283 283 281 285 287 287 289 290 291 295 288 293 296 300 300 302 303 304 305 307 307 307 308 311 308 306 306
316 317 316 317 319 318 318 316 315 313 313 312 303 297 291 284 284 296 295 296 296 298 299 297 296 296 295 292 295 296 291 296 297 296 299 296 296 294 296 298 298 296 297 296 290 291 286 287 293 297 292 300 299 297 297 295 294 294 299 295 290 288 284 281 284 282 283 286 287 292 287 286 287 293 301 302 303 304 304 305 307 309 309 310 309 310 308 306
315 317 318 319 317 318 315 315 314 314 312 306 297 291 283 283 290 290 293 297 296 298 296 300 295 295 293 295 297 296 296 292 298 297 296 295 293 294 294 295 298 299 298 289 294 292 290 290 299 300 300 299 298 301 302 300 297 297 298 300 292 289 294 285 287 286 286 286 285 286 286 292 293 301 302 303 302 302 303 304 305 306 307 309 308 309 308 307
314 315 318 314 315 316 315 314 314 314 309 301 292 285 284 288 287 297 295 304 299 296 295 296 297 293 292 293 297 295 298 297 296 296 294 295 296 294 298 298 297 298 295 290 294 288 291 288 297 299 299 298 299 303 301 302 287 294 296 290 294 298 295 289 286 287 285 284 282 290 289 293 298 298 299 300 301 302 304 304 304 305 306 307 308 308 311 308
311 314 309 313 315 317 315 314 313 311 307 299 290 285 290 293 300 300 302 299 300 299 296 291 292 292 291 290 292 293 295 298 296 295 290 297 293 297 297 298 302 299 299 296 293 299 289 290 292 296 293 298 297 300 302 299 303 297 289 294 300 302 299 291 284 287 285 281 283 289 286 288 289 286 300 299 298 299 300 302 303 304 306 306 309 309 312 307
310 310 311 311 315 318 316 315 312 308 303 296 287 290 296 292 299 301 305 302 301 300 296 293 295 297 293 292 292 293 296 292 293 293 291 295 290 301 298 298 301 300 299 301 293 297 297 287 292 295 297 298 298 298 297 301 299 298 294 304 292 286 285 290 287 280 280 280 283 287 289 289 290 290 296 297 296 298 300 302 302 303 304 305 307 310 308 308
309 308 301 310 317 318 316 314 311 304 298 290 286 287 293 295 303 299 303 305 305 300 295 296 294 296 296 293 295 295 295 289 295 292 290 294 289 298 297 300 299 301 301 300 294 297 297 287 290 290 294 296 296 296 288 292 298 300 300 297 301 295 290 287 287 287 286 281 282 283 287 285 294 294 296 296 298 299 301 301 302 303 305 305 307 310 309 308
304 302 299 313 318 318 316 313 306 301 296 287 288 289 298 294 299 303 305 302 299 299 296 296 298 295 295 296 298 293 296 295 294 294 293 296 293 300 298 302 298 300 300 300 297 300 293 294 285 290 294 295 288 293 290 294 290 290 291 291 294 292 297 294 294 288 286 283 283 283 282 287 295 299 299 299 300 301 301 302 305 305 306 307 308 310 312 310
306 300 301 315 317 317 313 306 298 294 293 296 297 294 297 295 299 301 303 304 301 302 300 298 298 295 296 294 295 298 295 295 295 294 294 295 295 291 300 300 301 299 300 299 297 297 290 291 286 289 288 289 292 298 297 297 296 293 292 290 292 289 287 284 283 294 288 286 283 283 282 289 297 301 301 301 302 304 304 305 306 307 307 308 311 308 307 309
300 291 296 315 316 314 306 295 295 299 295 293 292 297 295 302 299 300 301 302 301 300 302 300 300 297 296 295 297 295 294 293 295 295 296 294 298 297 301 302 301 302 298 293 295 300 297 297 290 288 289 291 294 296 297 296 299 299 296 293 296 294 292 288 282 286 287 288 289 288 285 288 302 303 303 302 304 304 305 306 304 306 307 307 307 306 306 307
296 294 310 313 314 311 302 294 297 294 293 297 302 301 302 300 298 301 298 299 296 300 298 297 297 295 297 297 297 295 294 290 293 293 297 297 298 299 303 301 303 302 301 296 300 299 294 289 287 288 294 295 295 297 298 298 298 295 296 297 296 292 293 290 290 289 288 288 286 286 283 288 300 304 303 303 303 302 302 302 304 305 306 306 306 305 305 304
296 297 302 311 314 310 297 289 289 292 294 299 299 298 302 300 298 298 297 299 297 297 296 297 298 300 297 299 297 293 297 287 294 293 292 297 295 303 304 302 302 299 298 296 294 299 289 290 289 285 285 287 291 293 293 297 295 292 293 296 297 298 297 295 291 293 288 289 288 286 281 287 295 300 300 298 300 300 301 301 302 303 306 307 306 306 305 305
297 300 301 306 309 305 293 296 294 293 294 294 295 294 296 298 301 300 300 298 301 300 298 296 299 300 297 299 296 297 297 293 288 297 296 296 296 301 301 302 301 298 302 301 297 302 291 290 287 282 280 279 279 281 283 286 288 292 294 295 296 295 295 292 287 289 285 288 289 287 286 293 298 300 299 300 301 299 303 303 302 303 304 305 307 307 305 305
293 285 294 297 303 300 299 302 300 295 293 293 292 294 297 294 299 301 301 299 301 301 300 300 301 301 297 296 293 293 294 297 293 290 294 294 297 298 298 298 298 298 294 296 299 299 288 288 290 288 286 285 287 291 297 296 292 287 290 292 294 296 296 295 292 288 285 288 287 290 291 292 294 297 299 299 299 301 301 302 303 303 303 304 304 306 306 305
300 288 290 287 296 296 294 298 296 297 293 296 289 294 292 294 296 297 302 295 300 300 300 299 298 295 295 295 294 294 296 294 296 294 293 295 298 297 297 296 296 294 293 295 296 293 288 287 290 291 291 292 294 295 297 296 292 292 291 291 294 294 293 290 288 286 292 288 284 291 294 290 292 296 298 299 301 301 302 303 304 305 306 307 307 305 301 303
286 293 295 296 290 287 289 290 295 295 296 297 293 296 293 293 294 290 298 299 300 301 296 297 298 298 297 295 296 290 293 293 294 290 295 296 296 298 296 296 295 293 294 292 296 294 288 286 292 292 290 293 294 295 297 296 296 295 294 293 292 294 292 288 289 292 293 288 286 292 295 292 294 296 299 300 301 301 302 303 304 305 306 305 303 302 303 304
295 296 296 301 290 293 293 295 296 294 294 295 294 294 292 292 291 295 295 295 297 296 297 290 294 297 297 298 296 292 293 288 287 293 291 291 292 291 290 292 292 292 294 289 292 290 289 287 289 289 289 292 293 294 295 294 294 294 295 295 295 294 293 293 292 294 293 291 294 294 294 294 297 298 300 301 303 303 304 305 305 305 304 304 304 304 304 305
289 290 289 296 295 294 295 294 294 291 290 293 289 292 293 292 291 294 297 295 290 293 299 293 294 297 297 297 296 292 294 295 294 290 295 294 289 291 290 293 288 286 290 288 291 292 291 287 291 289 286 287 291 293 292 293 293 291 293 294 295 295 295 294 294 294 294 293 294 294 293 293 298 301 301 303 304 304 304 304 304 305 304 304 306 305 306 305
297 298 298 292 288 291 292 293 292 291 289 289 288 291 293 293 292 295 295 299 295 294 296 293 296 296 298 297 296 295 299 298 298 298 298 296 291 295 293 291 295 287 287 287 288 289 291 286 289 286 284 285 289 290 291 290 289 288 288 291 292 293 291 293 292 295 293 290 292 292 290 291 297 301 301 302 302 302 302 303 304 304 304 304 304 305 306 306
297 299 299 295 287 292 289 292 292 291 286 291 289 290 292 293 295 296 292 298 298 298 298 298 298 296 294 295 294 296 300 301 301 302 302 302 301 300 299 300 298 291 288 288 289 288 288 287 286 286 283 284 288 289 288 288 287 284 285 289 291 293 294 295 297 297 296 296 291 288 289 296 299 300 300 300 301 302 302 302 303 304 304 304 304 304 305 306
Wind_Speed
5 5 3 2 2 2 1 1 1 1 2 2 3 3 4 4 5 5 6 5 6 7 7 8 8 8 8 8 8 7 7 4 4 5 7 3 3 6 7 6 7 8 5 5 4 5 5 4 4 3 3 4 2 2 1 0 2 2 5 6 6 3 5 5 4 5 5 1 8 10 10 8 7 6 5 3 4 7 3 5 5 2 2 4 7 5 7 8
5 4 3 3 2 1 1 1 2 2 3 2 3 3 4 5 5 6 6 6 6 7 7 7 8 8 9 9 9 7 5 4 6 5 2 3 5 6 7 7 7 6 4 5 7 6 3 5 4 5 4 3 1 1 2 2 1 5 5 5 5 4 4 3 2 4 1 3 5 8 8 8 2 10 6 6 7 9 8 8 7 7 7 8 8 8 9 9
6 4 4 2 1 2 1 2 2 2 2 3 3 3 4 5 5 7 7 7 7 8 8 8 8 9 9 9 8 6 3 5 4 6 3 4 5 6 7 7 7 4 5 5 2 5 4 1 5 6 3 2 2 3 4 3 3 1 4 5 4 6 6 5 3 4 6 2 3 7 7 6 4 3 7 7 6 7 9 7 9 9 10 12 10 10 10 10
5 5 4 2 2 3 2 2 1 1 2 3 3 4 5 5 7 7 7 8 8 8 9 9 9 9 9 9 7 4 3 3 6 5 4 6 7 6 7 7 7 8 7 6 3 3 2 2 4 6 4 4 4 2 6 3 4 3 4 4 4 4 1 4 3 5 5 3 2 5 5 7 4 4 5 4 8 8 8 9 8 9 11 13 12 12 11 11
2 4 4 2 4 3 3 2 1 2 3 3 5 6 6 7 7 8 8 8 9 9 9 9 9 9 9 8 7 3 3 5 4 3 6 6 7 7 6 6 6 6 6 2 4 1 4 4 5 3 5 4 4 5 1 4 3 2 2 5 3 2 1 4 3 4 4 2 2 5 7 7 5 2 7 8 8 6 2 3 9 7 5 9 13 13 11 12
5 5 4 3 4 3 2 2 3 3 3 5 6 7 7 7 8 9 9 9 9 9 10 10 10 10 10 8 5 4 3 4 2 2 5 7 6 6 5 5 6 7 3 4 4 2 5 5 6 5 5 5 7 6 5 1 1 4 4 2 4 4 3 3 2 2 4 1 4 6 2 5 5 4 8 10 12 5 6 6 8 8 6 6 9 12 12 12
6 5 5 4 3 3 3 3 5 5 6 7 7 8 8 8 8 9 10 10 10 9 10 10 10 10 11 7 3 4 7 2 2 3 3 6 6 4 5 5 5 4 4 4 3 4 5 6 7 5 3 1 3 1 4 3 2 5 1 4 4 4 4 3 3 1 0 3 1 4 3 5 4 9 3 9 12 12 6 6 7 6 5 4 9 11 12 14
6 6 4 2 4 4 4 3 4 5 6 6 7 8 9 9 9 10 10 10 10 10 10 10 10 10 10 3 2 5 7 3 4 2 3 4 5 4 3 6 5 4 3 3 2 4 4 6 6 4 5 3 5 4 4 4 3 5 3 3 4 1 3 2 2 2 0 1 3 2 4 6 4 3 2 11 13 10 7 6 5 5 4 5 7 10 10 11
7 6 5 4 4 4 4 4 4 5 6 7 7 8 9 9 9 10 11 11 11 10 10 10 11 11 6 4 5 5 4 3 4 4 4 5 5 3 1 2 3 4 0 1 2 3 4 3 2 4 2 4 2 5 4 4 6 1 5 5 4 3 4 4 4 2 1 1 1 3 6 2 1 3 10 15 12 8 5 4 4 5 5 6 8 9 10 11
7 6 6 6 5 4 4 4 5 6 6 7 8 8 9 9 10 10 11 11 11 10 10 10 11 10 4 4 3 7 3 5 2 2 4 4 5 4 2 3 3 1 3 1 2 3 5 1 1 4 4 7 3 3 2 4 3 2 6 4 3 5 4 2 2 4 1 1 2 4 5 4 4 3 7 8 3 5 4 7 5 5 8 9 8 9 10 11
8 8 6 6 6 5 5 4 5 5 5 6 8 9 9 9 10 11 11 11 11 9 9 10 10 9 3 6 6 5 2 2 3 2 4 3 4 2 3 5 5 2 2 2 1 4 3 1 2 3 3 4 5 5 1 4 2 3 6 6 5 4 2 4 3 4 4 3 3 4 6 3 3 4 13 2 2 2 6 8 8 7 9 8 8 8 8 9
10 9 7 6 5 5 4 4 4 5 5 6 7 8 9 10 11 11 12 11 11 9 9 8 9 4 5 5 7 2 3 4 3 2 1 3 3 2 4 4 4 4 4 3 3 3 4 3 1 1 1 6 4 7 4 2 0 5 4 5 6 5 5 7 6 5 5 2 3 1 7 11 9 11 15 8 6 5 5 5 6 7 7 8 8 7 7 8
10 10 8 5 5 4 4 4 4 5 6 7 8 9 9 9 10 11 12 11 8 10 9 8 7 3 3 7 3 1 3 2 2 1 4 3 4 2 2 2 3 3 6 2 4 2 3 3 5 2 4 2 5 1 5 2 3 3 5 5 5 6 7 9 4 3 5 3 3 1 5 5 13 20 11 8 6 5 6 8 8 7 7 7 8 7 7 7
9 9 8 6 5 4 4 4 4 4 6 7 8 9 9 10 11 11 11 11 12 10 8 8 3 3 4 0 2 3 4 2 2 2 2 0 2 4 3 3 4 5 6 9 5 2 1 2 1 7 3 3 4 3 6 4 3 4 3 2 5 5 4 6 5 5 6 5 4 2 7 8 4 3 8 5 4 6 9 9 9 8 8 7 7 7 8 9
10 8 8 6 6 6 4 5 5 5 7 8 9 9 10 11 11 11 11 11 8 8 8 5 4 2 7 3 2 4 2 4 2 2 3 3 6 6 5 5 8 8 6 6 4 1 0 2 3 5 4 2 7 6 6 5 4 2 4 6 5 6 5 6 4 6 8 4 5 5 7 10 11 3 4 4 2 4 8 8 8 8 8 7 7 8 8 9
9 9 8 7 6 6 6 5 6 6 8 9 10 11 11 11 10 10 10 9 11 8 4 4 3 3 5 6 3 1 2 4 4 4 2 4 4 3 6 7 6 5 4 4 1 1 2 4 4 4 6 3 5 5 5 4 5 5 7 2 5 5 4 6 4 1 1 4 6 11 6 2 2 5 4 4 3 5 7 9 8 8 8 8 8 7 7 8
10 10 9 8 7 7 6 6 6 6 8 9 11 11 9 8 9 9 9 7 4 3 3 1 2 1 5 3 1 4 5 2 1 2 1 2 4 6 7 7 5 6 4 3 2 2 2 2 1 2 2 4 5 5 5 6 5 7 6 6 3 6 4 5 5 3 3 5 6 11 9 11 10 6 4 7 7 6 5 7 8 9 8 9 8 8 9 9
10 10 10 9 9 8 6 5 6 6 8 11 11 10 9 9 9 9 6 4 3 3 3 2 3 3 3 0 4 4 4 6 2 1 2 2 4 2 2 4 4 6 6 6 2 4 1 2 4 2 5 5 4 7 6 6 7 7 7 6 5 6 7 4 3 6 5 5 8 8 12 15 13 13 15 11 9 9 11 12 13 14 13 12 11 10 11 10
10 11 10 9 8 7 5 6 6 7 8 12 14 11 10 9 5 5 1 3 3 4 4 6 6 8 1 9 7 6 2 2 1 2 5 4 2 1 0 1 7 7 6 6 4 3 3 2 3 3 6 7 9 8 8 3 5 3 3 5 3 3 6 6 4 5 2 5 7 10 11 13 11 12 11 11 13 14 13 12 11 12 12 12 12 12 12 11
9 9 8 9 9 8 7 5 6 6 7 8 2 3 2 3 3 4 4 3 6 2 4 2 7 5 5 4 5 4 2 4 5 1 4 1 3 6 5 5 3 5 4 6 6 3 2 6 6 6 7 9 10 10 2 4 4 4 3 4 4 4 5 6 6 3 1 4 10 11 13 15 14 12 12 13 13 15 15 14 14 13 12 11 11 12 13 13
10 10 10 8 8 8 6 6 5 4 3 5 5 3 4 6 6 5 7 4 2 1 4 4 6 4 4 5 6 9 7 4 2 6 4 1 4 8 6 6 7 6 6 2 2 2 4 6 7 9 2 3 3 4 2 2 2 5 4 4 5 3 5 4 3 3 2 4 6 8 10 15 15 13 13 13 14 18 17 16 16 15 14 12 13 14 14 12
11 11 10 9 8 7 7 5 4 2 3 5 4 4 4 4 3 3 3 5 5 1 2 2 1 2 2 2 2 3 5 5 5 6 3 4 7 9 9 8 9 9 7 5 3 4 5 8 8 6 6 4 3 2 2 5 4 4 6 3 4 5 4 4 6 3 2 2 7 8 10 15 17 15 14 14 16 17 17 16 15 14 12 12 12 13 13 10
12 12 10 9 8 8 6 5 3 1 3 3 5 5 3 4 3 1 3 4 3 2 4 5 4 6 4 2 3 3 5 7 7 9 8 5 10 7 8 10 10 6 7 9 7 6 7 8 10 6 5 6 3 3 4 4 5 5 5 6 5 2 2 3 4 2 4 3 7 10 12 14 18 17 19 18 17 18 18 17 15 12 13 15 15 12 11 12
12 12 11 10 9 9 7 5 3 3 4 4 7 6 3 1 3 4 3 4 1 3 4 2 5 4 7 4 6 7 7 2 2 11 6 7 9 4 6 12 11 9 8 10 12 9 8 4 6 3 4 4 5 5 6 5 6 7 7 6 6 3 5 6 2 3 6 6 4 9 11 12 12 12 10 9 10 12 14 13 12 12 13 14 9 9 12 14
12 12 12 11 10 8 7 6 3 3 0 2 7 8 4 2 1 4 3 3 3 3 2 2 3 5 4 2 4 7 3 2 2 4 8 10 7 5 7 1 5 10 10 10 10 10 10 5 4 4 3 4 5 6 8 6 8 6 9 9 8 7 9 2 3 7 4 5 5 4 7 5 1 7 7 4 2 8 9 10 11 11 12 10 11 12 10 10
13 13 13 13 12 11 10 3 3 4 3 4 1 1 3 3 1 2 3 3 7 4 2 6 6 4 6 7 6 3 5 6 4 3 8 1 4 4 5 5 2 7 11 8 8 6 3 5 4 5 5 5 6 6 6 7 7 7 1 3 9 10 5 4 6 4 4 4 3 3 4 9 2 9 9 9 11 14 12 10 11 11 10 9 8 8 8 7
12 14 14 14 14 14 6 2 4 6 3 2 3 3 3 3 1 3 3 3 8 8 8 3 2 2 2 8 10 6 7 6 4 5 5 3 6 3 6 7 3 1 3 4 1 7 5 5 5 4 6 6 6 7 6 9 7 7 3 2 1 3 4 3 2 3 7 6 7 10 7 11 11 10 12 15 17 16 15 11 12 11 9 8 7 6 3 3
12 14 15 16 17 17 3 5 6 4 2 2 1 4 4 3 2 2 3 6 5 9 5 4 1 3 2 6 7 9 4 9 7 5 5 2 2 4 5 8 10 10 7 6 10 3 9 9 9 9 8 7 9 3 6 11 8 1 2 2 2 1 1 1 1 4 3 7 8 6 6 4 8 1 12 16 13 14 13 11 12 9 7 2 2 2 2 0
6 13 15 16 19 14 3 2 3 2 4 2 2 4 3 3 2 3 4 6 3 4 4 6 2 4 5 5 4 2 5 2 2 5 2 2 4 2 8 9 8 8 12 13 11 3 3 1 6 9 8 8 4 5 3 8 8 3 3 4 5 5 3 2 2 3 4 4 10 6 8 4 16 8 6 7 9 10 9 11 9 4 4 5 4 3 2 1
2 10 15 17 13 8 3 2 4 4 2 3 2 5 4 2 4 5 4 8 7 5 3 3 5 10 11 12 10 4 5 2 3 5 6 5 6 2 3 5 3 6 6 5 5 3 2 1 3 2 6 0 7 7 5 5 6 9 7 7 5 3 2 1 1 2 2 6 12 8 11 4 10 8 9 8 8 9 10 6 5 5 5 5 4 4 3 2
2 4 14 18 8 5 4 5 5 4 3 2 4 5 2 2 3 7 8 5 3 2 3 6 5 11 14 15 9 6 5 4 5 10 7 2 6 5 4 4 0 3 0 4 8 5 2 3 3 1 3 4 7 7 6 2 6 7 4 5 4 2 2 3 3 2 4 9 1 6 8 9 5 4 6 8 2 5 5 7 0 2 3 5 5 4 4 3
4 2 10 13 6 7 9 4 6 5 5 3 3 3 4 5 4 8 6 8 4 8 11 9 6 10 16 14 7 12 10 6 8 9 10 10 9 11 12 11 9 5 8 10 8 5 6 7 3 4 3 6 6 8 5 3 3 3 6 6 4 2 3 4 4 6 8 8 2 2 2 4 16 17 3 4 4 6 8 5 4 5 4 4 6 5 4 3
4 3 8 10 6 7 2 3 5 6 5 6 6 5 3 6 9 7 9 10 3 6 6 7 10 12 14 12 10 11 7 10 10 9 8 8 9 11 13 14 13 12 8 9 8 5 4 4 8 5 3 7 8 9 6 4 8 9 9 8 6 7 7 8 8 4 4 2 1 3 1 8 13 13 15 17 12 9 6 2 3 4 5 5 4 6 5 4
4 4 3 6 6 4 4 5 6 11 8 5 9 6 4 7 9 13 13 8 0 3 6 6 12 10 16 11 11 13 6 6 12 8 10 8 10 10 11 16 13 13 5 1 11 8 8 6 10 12 6 11 10 11 10 6 12 12 8 10 8 6 5 7 5 7 5 5 3 3 2 5 2 2 4 5 6 9 10 8 5 4 6 5 3 4 6 7
8 5 5 4 7 3 7 6 9 9 8 9 7 8 12 9 2 11 13 6 4 3 6 9 11 12 11 6 2 13 4 5 9 9 9 9 10 10 12 13 15 10 8 9 7 5 15 11 5 14 2 18 15 11 8 7 5 8 7 6 8 12 6 10 2 3 2 0 1 4 6 4 7 4 2 1 5 5 6 8 7 9 9 6 6 7 8 7
3 4 6 5 6 6 6 6 8 7 10 9 8 7 12 11 6 6 5 3 4 6 9 9 8 10 9 8 3 11 3 1 11 7 7 11 10 11 11 8 14 20 12 12 4 8 3 8 8 5 4 16 12 6 9 8 7 8 7 8 8 7 3 2 1 3 1 2 10 4 7 11 10 19 21 14 9 9 7 5 5 7 10 7 7 11 6 5
5 3 5 5 6 8 8 8 8 7 7 9 5 10 9 7 3 3 3 7 3 12 11 10 8 10 10 9 7 10 7 3 9 9 9 9 10 13 12 13 11 15 18 12 5 4 6 2 2 7 7 4 4 3 1 5 2 7 7 8 6 4 5 3 7 2 4 10 7 4 11 13 6 12 6 7 11 12 11 9 11 11 8 8 8 12 5 6
5 3 4 8 7 10 9 9 11 6 5 6 7 8 3 6 2 4 3 5 7 11 8 11 7 11 9 11 10 13 11 10 11 10 7 13 6 13 15 8 13 14 19 15 8 3 5 7 5 2 3 5 2 2 2 2 3 3 2 3 7 4 7 8 3 8 9 9 7 10 14 14 14 16 4 4 9 10 11 11 11 10 10 10 13 6 6 7
4 3 5 9 8 11 10 10 7 7 6 5 4 6 4 7 4 7 3 4 3 8 12 12 11 9 12 11 8 14 15 12 13 11 8 9 8 11 16 12 9 15 15 16 12 4 4 7 3 2 1 5 5 7 9 10 4 1 1 3 2 2 8 9 9 3 5 11 7 10 11 12 11 12 13 17 15 12 10 11 10 11 10 12 11 3 6 6
5 4 6 8 12 11 12 11 7 6 5 6 6 5 4 8 6 7 4 5 2 4 6 7 11 10 8 10 12 11 13 14 13 11 13 9 9 7 11 14 9 11 15 18 12 8 6 7 10 4 3 4 6 9 13 11 11 7 5 9 5 4 3 5 3 7 7 7 9 7 11 9 10 7 12 11 10 10 9 7 6 7 12 9 2 1 2 4
3 4 1 8 12 12 11 5 4 9 8 3 7 6 9 7 9 8 8 4 0 3 1 1 2 3 1 4 6 10 8 12 11 10 10 10 12 5 9 10 9 9 10 13 13 9 5 8 10 6 4 9 10 10 12 13 15 14 15 15 15 11 8 8 8 3 0 5 5 6 11 10 13 5 6 7 8 3 1 3 6 8 8 2 1 1 0 2
6 6 5 9 12 16 11 10 6 5 4 7 10 9 9 7 6 9 6 3 3 2 1 2 1 2 1 1 2 4 2 8 9 9 10 10 11 12 5 5 8 12 12 9 13 13 7 3 8 8 9 10 5 4 3 4 3 6 10 12 13 11 10 8 11 4 1 4 3 3 8 17 3 6 4 6 3 3 4 2 5 5 5 2 3 0 1 3
7 10 5 7 13 15 12 10 7 7 8 7 4 7 6 7 8 8 9 6 7 5 1 4 6 6 4 4 2 2 1 1 1 9 6 9 6 2 5 3 2 11 9 2 5 0 7 2 3 7 4 4 3 3 3 1 2 6 7 2 5 12 13 10 6 2 6 4 7 7 10 14 6 6 4 3 3 2 2 2 5 4 0 3 1 2 2 3
8 8 3 3 9 12 12 12 12 12 12 10 12 8 8 8 10 9 10 11 9 7 8 6 5 8 5 7 6 4 3 1 2 4 7 4 4 6 2 4 8 5 9 4 6 8 4 4 7 5 6 3 5 3 5 2 4 5 7 8 6 6 9 5 2 0 6 10 11 8 13 14 0 1 4 3 5 4 5 4 3 4 3 3 2 2 3 4
6 4 6 4 7 12 12 10 11 13 14 15 12 14 11 7 9 13 13 13 10 9 7 8 10 9 8 3 8 5 5 11 3 2 7 5 5 4 4 2 3 6 1 3 3 2 4 5 9 9 11 13 11 10 10 8 8 7 8 12 15 16 14 5 8 6 10 7 12 11 13 16 14 5 3 4 5 3 2 2 5 5 5 3 2 2 2 3
7 7 6 7 4 6 11 8 5 11 15 16 15 15 15 13 8 11 13 13 14 11 12 6 9 9 10 7 5 8 10 11 11 2 4 4 6 2 2 3 3 1 5 5 5 1 2 1 5 10 12 13 10 2 3 11 8 9 10 15 14 14 15 11 4 8 13 14 13 11 14 20 23 14 4 6 3 5 6 7 6 5 5 3 3 3 3 3
2 9 9 9 6 9 7 12 11 9 12 12 10 8 15 16 9 6 12 6 11 13 12 12 8 10 8 12 12 11 11 9 10 8 9 8 4 1 2 3 3 4 5 3 7 3 1 4 9 15 17 16 15 6 1 11 12 15 15 15 15 15 15 13 13 16 17 9 15 15 19 15 23 23 18 16 8 5 7 10 7 2 1 4 4 3 4 5
7 4 11 9 8 9 11 11 16 15 13 14 11 9 13 15 14 8 8 11 7 14 8 8 11 14 13 17 13 11 12 14 11 10 11 8 8 3 2 1 2 3 3 0 4 2 2 6 8 9 14 17 17 14 5 7 7 8 14 14 15 17 16 15 17 19 16 13 17 15 12 17 22 25 16 13 14 16 15 13 10 8 4 4 3 4 5 7
8 3 5 4 11 8 11 7 14 18 20 17 8 13 14 16 18 14 8 11 11 10 16 8 15 18 18 16 14 10 11 8 9 11 7 5 9 4 2 1 2 3 3 1 2 1 2 8 8 4 10 15 16 15 14 14 10 10 10 12 13 16 18 19 21 21 20 17 16 18 19 21 19 22 16 12 14 15 15 13 12 10 7 7 7 7 8 7
10 10 4 3 3 8 3 3 7 10 11 12 10 12 13 14 17 15 12 13 9 11 13 18 15 16 17 18 15 13 13 12 10 12 11 11 4 6 6 7 2 2 1 3 3 1 3 4 5 1 6 14 17 12 7 12 11 13 12 10 9 13 18 21 20 18 16 17 18 20 21 21 21 21 15 16 19 17 16 12 10 9 10 10 10 11 8 8
6 5 3 3 8 9 5 6 9 13 9 7 9 9 11 15 17 15 15 13 14 10 13 20 18 15 15 17 16 15 13 12 12 11 9 13 11 8 8 2 9 5 3 3 2 1 4 2 3 3 5 10 14 13 13 10 7 6 7 10 12 15 17 15 14 13 13 16 19 19 17 18 20 11 14 19 18 17 19 15 13 12 13 11 14 14 14 11
10 6 4 3 6 9 11 7 8 8 14 11 9 10 11 16 13 13 10 8 13 15 13 15 16 12 13 14 16 17 16 12 12 9 6 5 10 5 10 5 10 10 6 6 4 6 5 3 3 2 6 10 9 2 8 8 8 10 13 20 22 17 11 9 12 16 20 18 14 13 17 16 17 16 13 17 20 18 18 17 14 15 18 18 16 18 18 18
Wind_Direction
190 187 177 226 219 203 210 3 22 22 23 10 359 352 345 346 349 343 342 342 335 334 333 335 337 336 336 337 338 340 324 249 193 201 220 63 10 354 337 324 317 312 319 272 213 217 201 188 173 188 195 217 63 203 81 20 331 253 218 236 228 256 210 145 224 191 36 234 136 169 174 192 168 163 163 162 207 238 151 214 181 159 201 81 115 125 121 129
177 196 206 213 212 219 357 339 338 355 350 356 7 352 349 352 347 339 338 334 328 327 331 335 336 338 338 337 338 337 306 244 219 207 51 42 11 347 332 320 317 312 299 236 207 209 203 174 170 193 188 161 203 82 213 128 309 224 230 236 253 224 62 17 334 50 256 32 139 162 179 203 164 163 151 209 201 199 217 220 202 211 198 145 136 134 152 147
181 192 221 200 175 252 290 300 307 313 335 356 4 5 0 357 350 342 336 332 329 329 330 335 339 336 339 339 333 323 291 219 229 185 93 42 356 340 332 323 308 310 267 309 281 266 273 141 164 199 206 159 204 147 239 98 267 212 277 224 237 57 72 47 21 80 49 6 146 157 168 216 102 192 129 217 235 192 225 225 196 221 210 188 163 156 153 165
192 207 219 209 243 258 266 255 279 297 355 2 359 4 356 356 349 341 339 333 329 329 331 334 334 339 334 333 340 302 267 218 216 108 74 30 357 337 333 325 308 281 263 262 293 269 267 172 177 224 166 226 130 173 200 107 240 102 234 262 28 3 178 76 62 69 59 2 184 162 148 198 151 181 182 203 239 231 239 241 235 211 222 190 167 162 161 170
209 221 216 232 246 250 252 284 328 331 332 346 3 349 352 350 343 338 337 335 331 330 330 331 334 333 332 327 306 250 241 243 141 69 43 10 349 340 334 329 310 281 246 252 218 182 222 184 176 206 216 158 165 187 158 119 355 236 236 36 359 33 289 71 77 45 36 345 185 139 163 203 116 170 220 227 229 236 277 239 220 257 21 138 160 169 168 176
222 214 209 230 240 243 267 292 323 304 324 345 350 342 341 342 339 336 336 335 331 329 328 331 332 331 325 323 273 234 244 215 57 102 2 359 339 336 335 322 300 301 232 235 252 166 201 187 192 181 204 189 174 204 124 99 89 232 139 96 43 20 13 54 116 54 310 120 163 182 172 94 176 215 215 231 235 234 71 48 51 66 73 127 158 161 177 184
208 205 212 214 270 247 263 290 304 323 335 330 331 336 333 335 333 334 334 333 332 328 328 330 333 331 323 305 227 239 238 62 198 80 27 335 321 317 314 273 251 266 256 252 204 202 204 192 221 193 202 130 154 139 114 148 196 288 79 123 79 11 46 35 48 50 271 294 79 28 19 237 199 238 158 239 240 248 98 95 81 84 108 142 162 175 185 191
210 200 183 185 234 246 257 281 295 306 309 314 315 320 322 325 330 328 331 332 333 329 330 331 334 330 335 250 233 207 223 113 81 140 19 313 303 339 236 270 276 271 252 307 295 220 198 206 207 160 213 232 142 177 131 178 204 235 159 127 92 76 82 74 73 133 139 279 347 292 244 242 236 278 14 248 247 241 232 141 136 127 127 158 194 188 196 199
204 195 178 209 223 240 264 283 289 293 299 305 310 307 312 323 322 327 327 331 332 332 328 332 333 332 301 277 252 237 176 55 358 350 342 344 338 337 195 263 191 245 176 225 297 327 236 166 247 206 187 157 151 138 184 223 175 337 91 115 123 105 102 101 122 121 154 102 230 221 243 212 65 20 263 258 251 241 222 167 189 189 199 196 203 204 202 204
195 190 197 208 208 231 248 264 271 285 296 303 303 303 305 314 320 322 325 327 329 330 328 329 338 329 290 234 218 239 80 289 346 1 350 337 317 306 226 345 319 233 222 94 230 254 241 121 322 148 89 70 183 102 37 279 36 101 124 124 129 119 130 177 166 134 136 97 182 242 234 214 123 211 263 228 237 119 178 230 217 221 233 224 215 214 212 212
191 190 190 196 207 219 235 247 269 288 296 296 300 300 302 310 313 317 324 322 326 326 326 330 338 322 248 242 231 203 7 285 8 1 6 325 317 328 12 339 329 274 125 125 51 347 350 187 106 118 253 117 144 111 330 60 100 123 125 124 123 151 164 151 181 150 189 158 208 267 274 278 196 193 240 180 128 170 208 226 222 226 237 238 225 214 213 218
197 203 195 195 212 214 227 248 271 290 308 310 307 304 306 305 309 314 319 323 313 326 326 326 333 310 276 245 238 15 326 8 341 1 45 347 50 26 338 324 321 317 292 140 75 34 351 88 253 331 80 160 136 122 99 136 278 136 196 190 157 169 195 177 191 165 223 137 208 232 280 256 211 233 238 203 140 160 191 212 217 223 230 232 234 220 208 213
201 202 204 196 208 221 225 247 278 303 319 322 316 310 305 304 306 311 314 315 321 320 325 330 321 274 299 218 66 64 357 14 36 59 91 94 112 74 48 10 341 1 340 109 101 39 8 6 314 129 77 261 107 307 101 194 106 166 195 279 172 201 226 171 129 142 225 115 183 222 261 240 221 229 230 136 166 167 226 241 236 238 230 226 220 222 222 213
191 198 205 200 203 232 241 250 274 302 316 319 320 315 310 308 305 305 307 306 309 310 319 321 316 263 247 105 85 41 334 3 290 192 89 234 185 72 79 67 53 57 51 84 72 24 347 269 259 90 43 19 123 185 156 128 181 204 151 257 251 202 189 143 190 142 221 117 185 222 258 268 331 132 112 117 145 211 241 243 243 241 236 228 223 225 229 225
186 188 198 201 196 219 237 263 292 309 313 316 318 317 312 305 302 302 302 300 300 320 305 300 240 244 218 87 156 85 348 271 245 96 15 297 145 127 116 99 67 64 68 76 94 128 359 336 175 154 95 19 117 176 156 171 191 191 180 212 208 237 119 139 153 180 225 140 203 194 256 259 265 111 92 95 151 213 243 250 251 249 244 236 231 229 233 234
181 188 191 194 216 235 245 262 279 290 307 310 313 312 307 299 295 296 295 290 300 297 269 242 170 285 288 189 89 257 231 202 158 44 10 304 316 149 119 107 113 108 111 70 70 197 63 55 54 52 120 129 197 206 176 175 198 205 237 204 191 217 165 168 169 147 1 124 180 213 259 320 155 112 137 132 172 211 236 255 255 253 253 250 236 233 239 238
181 187 190 194 205 225 246 255 263 285 298 305 313 302 296 287 290 293 290 293 274 224 246 324 137 180 251 55 317 220 177 126 3 170 354 21 311 134 145 144 131 110 108 143 142 198 64 159 168 210 242 228 203 218 210 216 210 205 208 249 197 213 207 235 103 189 166 240 212 210 244 249 273 275 178 165 178 180 230 246 254 257 257 253 246 238 234 232
184 185 188 196 206 218 233 256 275 281 303 315 306 300 292 292 297 290 235 222 213 231 234 237 263 245 193 17 207 150 63 119 126 59 347 356 295 209 225 152 131 147 157 142 152 227 123 146 221 220 167 207 210 207 218 214 217 211 191 222 218 228 250 283 190 138 199 181 253 241 238 255 257 265 274 265 195 210 242 253 259 262 261 262 256 245 241 237
193 192 193 192 205 217 226 246 267 293 318 313 288 275 265 267 261 259 221 161 184 150 188 179 185 202 246 156 93 106 91 59 131 242 158 157 173 266 256 83 172 161 179 215 128 201 168 133 228 214 206 198 206 214 219 302 350 350 211 230 280 236 190 225 115 131 227 226 235 241 255 266 258 261 259 255 261 257 255 254 256 256 256 254 250 248 243 237
198 201 196 197 201 202 220 241 264 288 339 310 311 236 201 180 180 157 173 214 255 360 346 26 198 74 117 133 119 54 159 211 155 108 122 45 180 184 167 182 138 248 193 217 134 194 15 214 199 208 218 211 210 224 316 49 5 2 318 293 273 278 282 104 102 80 156 278 256 256 263 267 267 267 270 275 277 271 267 254 254 250 247 243 242 243 241 239
196 198 200 203 202 205 209 225 246 302 338 310 298 246 196 184 186 176 163 216 103 92 0 33 26 21 44 96 120 162 133 150 330 150 141 60 292 185 166 183 181 204 201 35 124 89 239 228 223 224 233 358 169 108 116 2 323 286 285 280 257 217 267 70 109 148 144 268 281 283 282 274 274 271 270 272 270 267 260 254 247 248 246 243 241 243 241 242
198 198 197 199 203 203 214 228 247 63 262 291 276 250 341 11 2 355 311 198 193 129 219 46 244 136 83 80 95 340 292 138 177 152 134 217 177 209 156 208 188 217 118 134 127 178 199 225 230 225 103 104 79 167 207 253 242 229 260 265 275 259 272 114 89 125 155 217 268 286 282 280 280 278 272 262 258 262 261 252 253 256 253 248 245 246 249 244
195 197 195 193 196 200 209 216 224 194 284 245 236 245 296 30 349 13 281 314 196 110 212 213 214 197 129 83 174 249 213 185 176 170 171 211 169 245 153 201 204 207 149 193 209 206 230 224 226 113 138 129 131 173 204 210 234 238 219 235 239 44 354 236 106 144 183 237 296 305 294 280 278 270 261 251 242 250 258 259 259 256 256 251 248 248 250 248
199 194 192 188 180 196 202 198 183 232 236 267 280 251 47 1 352 319 270 242 290 162 209 177 267 240 184 166 164 188 224 147 166 169 137 192 183 157 205 203 210 205 208 205 218 229 229 61 52 145 140 200 188 184 196 212 233 217 237 242 256 242 247 258 347 280 194 232 309 280 276 261 246 256 262 253 240 243 254 259 258 248 243 250 261 257 247 252
198 194 188 183 175 170 189 159 209 242 19 259 261 256 254 79 14 352 282 201 220 195 8 273 172 248 154 56 150 202 201 360 279 118 159 201 148 128 211 53 248 218 217 208 227 240 242 99 117 141 182 200 202 192 209 222 250 225 208 228 250 268 285 270 340 343 281 251 152 292 316 287 177 214 250 282 189 227 228 230 239 236 232 228 236 240 241 238
199 193 186 176 169 161 146 193 217 192 204 232 206 144 155 128 25 313 282 239 261 142 84 202 144 177 126 158 129 187 66 228 92 83 156 256 351 253 99 214 220 238 212 203 222 246 267 109 187 166 167 181 213 237 210 217 247 257 245 243 245 258 301 314 305 317 278 291 115 265 308 281 239 264 260 256 258 263 259 238 246 249 249 233 224 234 237 237
203 193 183 173 163 148 152 205 92 145 227 175 100 134 129 129 50 290 227 197 268 160 164 55 213 175 314 151 158 147 216 183 113 113 166 22 199 15 223 177 154 38 24 124 360 231 139 180 167 185 184 184 207 223 180 200 232 236 40 318 307 247 228 264 297 267 278 324 269 188 224 274 277 245 240 246 254 263 266 263 259 258 252 239 236 234 244 251
207 193 182 173 165 176 344 114 148 192 334 47 106 109 132 131 241 250 250 239 249 130 162 192 200 353 286 152 189 197 28 108 160 169 15 93 293 158 242 207 194 190 177 183 227 66 170 177 189 185 198 203 218 245 161 193 221 43 50 10 87 134 98 137 237 293 316 331 297 168 200 246 261 194 203 216 234 245 251 252 255 252 246 252 161 106 70 336
212 192 182 175 172 196 349 207 203 237 54 96 107 120 109 139 270 231 202 236 107 106 345 126 305 178 87 158 168 103 150 338 300 89 128 64 356 314 205 227 220 219 181 202 238 132 355 20 199 203 189 217 121 49 9 180 216 131 147 84 86 82 70 125 301 294 308 310 272 171 183 250 283 270 179 198 215 228 236 245 251 212 133 135 134 107 127 162
293 201 181 174 172 201 247 359 242 48 72 90 132 120 140 214 188 210 139 245 132 188 108 89 205 174 161 155 191 166 180 107 42 127 156 176 164 233 15 332 245 203 188 231 280 45 69 171 349 249 222 35 95 63 30 31 58 134 149 114 110 97 133 187 274 279 298 254 264 168 181 205 288 295 179 161 196 208 219 205 155 132 131 118 115 128 141 126
339 228 186 169 183 179 134 221 178 86 93 147 144 140 169 213 230 195 207 197 6 86 120 154 145 150 164 172 178 176 201 120 147 151 146 177 154 219 163 178 348 220 242 234 248 176 152 92 183 173 62 117 113 83 50 7 138 164 156 165 158 185 166 219 210 151 234 254 58 139 179 195 232 283 151 178 184 297 262 142 25 244 161 143 142 151 142 152
322 223 191 181 176 139 187 217 142 155 130 126 197 121 208 191 332 216 212 74 250 163 181 164 162 174 179 185 174 170 174 159 164 187 173 181 177 183 194 202 158 197 230 214 226 120 209 213 126 100 298 159 156 121 84 108 188 220 174 179 206 225 159 224 176 218 206 244 119 360 141 248 234 244 239 190 264 228 267 299 294 285 287 144 155 155 166 163
285 310 188 196 165 196 206 70 116 115 116 88 67 62 204 189 209 207 242 144 242 128 159 143 160 176 175 178 199 168 171 189 167 198 186 186 200 209 207 214 186 197 236 202 206 148 226 141 170 162 115 234 199 170 141 171 195 194 195 183 187 229 227 242 217 223 249 136 98 116 62 253 273 282 250 249 235 229 221 226 244 257 266 264 164 168 174 186
328 226 199 199 198 199 108 134 132 130 120 110 111 87 359 225 211 194 214 198 346 8 102 142 149 168 174 182 186 155 163 202 164 181 189 177 207 210 208 221 218 215 251 168 204 186 223 224 214 155 225 164 211 224 180 184 175 200 205 193 205 216 223 237 215 228 219 254 83 195 128 242 242 326 3 276 261 258 274 283 284 256 255 263 217 181 186 194
332 269 234 180 204 164 136 143 142 147 136 134 141 160 191 226 257 207 212 183 96 117 100 138 150 161 189 199 72 181 193 169 192 159 188 190 200 216 201 202 208 222 208 236 206 208 215 244 123 173 139 156 192 214 205 145 169 198 214 230 237 235 232 255 319 334 337 344 183 184 231 260 230 16 207 339 293 270 254 257 247 257 260 243 259 238 213 194
305 231 222 213 204 161 146 151 151 152 150 153 155 180 197 193 203 167 234 116 125 144 130 146 158 180 184 197 155 193 44 263 171 182 200 211 220 214 214 208 199 194 190 207 162 215 107 233 124 121 153 175 186 182 193 174 218 175 169 213 209 31 244 274 120 112 64 296 256 225 259 255 280 273 256 215 197 208 203 220 234 251 257 258 238 254 220 157
235 224 214 210 212 153 152 153 150 156 167 174 174 199 187 213 265 214 191 212 179 138 156 160 188 198 186 197 191 192 181 101 167 184 202 186 240 227 219 220 208 198 209 199 210 236 238 168 7 162 187 162 25 331 245 23 354 111 210 206 71 36 11 225 250 183 219 246 259 213 241 273 272 283 46 191 215 234 241 232 237 238 242 248 246 249 188 154
220 224 255 223 190 156 155 155 149 158 173 190 196 200 114 213 228 270 352 207 178 174 189 208 200 195 205 195 195 181 174 196 172 189 225 169 252 194 212 220 202 206 205 211 246 181 181 253 172 232 58 113 62 67 234 132 14 291 272 77 167 203 222 210 235 240 245 242 263 241 250 250 244 253 223 176 185 216 221 225 227 232 232 239 247 226 124 157
252 252 248 213 173 154 147 141 149 158 178 193 200 213 211 228 147 205 221 300 305 195 213 208 221 192 217 214 199 177 167 198 170 193 195 184 228 186 203 189 197 204 204 197 220 210 174 231 193 356 169 129 154 180 206 197 145 254 340 231 253 292 232 200 199 238 226 251 241 259 256 261 238 249 257 258 254 249 240 233 232 230 233 232 240 182 162 166
221 210 243 154 155 153 141 150 155 172 217 205 186 218 163 198 206 196 182 197 255 235 222 224 220 220 214 248 214 175 189 202 180 193 204 164 219 155 209 181 203 194 198 198 211 191 229 166 251 110 305 143 188 198 216 177 170 181 218 223 185 211 23 335 258 217 220 239 247 268 267 260 258 241 253 259 249 253 255 240 231 229 235 245 223 110 154 167
236 271 181 139 152 143 140 140 179 191 201 213 210 190 183 195 191 198 198 208 205 28 333 124 76 170 117 194 237 186 183 203 202 202 201 202 199 220 192 192 195 171 178 197 210 205 222 190 229 137 176 205 223 199 211 206 185 184 189 206 202 185 200 216 243 183 214 229 243 257 263 282 270 224 249 263 260 239 176 261 259 252 263 281 106 96 173 186
205 218 214 159 153 146 153 189 198 192 228 207 211 183 201 198 198 182 166 195 237 248 63 337 276 139 118 268 12 357 247 202 206 213 201 220 199 229 56 303 197 149 162 179 201 201 204 207 223 200 204 210 194 39 24 27 340 236 214 220 207 210 195 198 223 189 155 237 331 275 289 264 271 121 219 203 170 133 103 239 246 273 287 224 127 311 256 228
213 223 55 155 161 165 171 212 197 199 217 224 212 216 174 181 200 175 169 169 199 197 167 215 230 227 237 238 243 180 28 341 256 219 218 219 259 241 68 81 154 173 178 185 183 218 56 207 221 249 232 92 101 124 66 46 281 272 254 293 217 213 207 217 231 194 202 172 219 226 236 264 272 78 77 81 95 59 148 212 251 246 35 325 351 148 215 242
220 228 203 224 190 183 185 199 202 209 218 223 215 222 190 202 191 186 189 178 181 172 198 192 206 217 242 195 224 221 139 276 237 274 280 257 257 50 73 113 171 189 194 193 213 149 185 169 217 222 239 224 190 158 221 147 207 241 233 207 231 250 221 215 55 344 237 204 219 214 237 247 214 85 119 185 152 192 205 180 214 259 261 258 244 220 191 183
228 231 246 184 206 205 203 198 205 206 216 217 211 217 207 216 217 203 190 194 183 190 176 212 199 171 198 162 199 195 184 195 281 257 262 287 266 62 41 24 218 217 219 29 55 194 203 167 183 201 214 219 217 207 211 188 196 208 225 231 210 210 214 183 225 210 240 230 230 225 246 258 256 118 176 152 180 199 181 194 173 220 250 238 210 189 196 206
204 226 192 208 195 216 235 274 285 227 218 215 219 219 209 212 200 215 206 213 192 199 200 195 189 187 181 156 158 194 203 199 202 222 190 243 240 92 22 347 16 47 351 7 8 132 165 328 211 210 220 230 236 42 6 134 149 191 208 212 215 211 215 222 234 227 227 234 240 235 246 259 263 249 177 171 206 234 210 204 208 218 216 220 247 238 222 217
257 222 191 201 187 236 232 220 227 226 226 209 222 195 220 216 198 200 204 227 201 202 214 215 193 186 185 184 201 210 199 190 209 236 223 225 243 112 70 46 51 64 9 4 334 74 65 223 224 225 232 245 252 272 193 158 176 201 209 209 206 208 205 210 210 225 226 239 251 238 239 248 261 260 255 266 270 233 237 247 240 128 247 236 218 212 207 216
232 232 225 204 201 198 212 227 220 229 237 223 231 221 222 216 212 208 181 217 187 203 213 205 216 201 190 197 198 214 202 211 191 217 228 223 236 196 294 74 146 347 74 32 343 122 144 236 233 241 250 252 257 260 244 258 233 221 215 210 202 205 207 208 221 232 224 223 239 246 236 241 255 264 264 264 273 273 271 263 242 228 203 162 194 221 229 221
238 280 249 302 227 211 218 217 202 218 226 223 231 225 228 226 225 206 181 193 216 207 207 220 211 210 212 212 209 217 203 204 211 212 213 190 210 196 212 313 320 26 122 65 55 341 131 237 246 229 256 260 256 251 248 255 254 253 245 235 212 200 206 207 220 226 226 233 244 254 260 256 259 268 266 274 275 272 275 269 256 228 196 207 213 215 218 223
209 215 207 210 294 242 199 139 161 191 224 213 223 223 224 223 227 219 206 195 196 215 198 219 219 212 213 218 215 222 212 202 187 208 205 206 205 183 215 205 120 340 19 152 141 303 180 238 200 161 239 255 257 261 262 256 254 254 243 236 229 219 213 211 219 228 232 243 247 251 259 265 258 259 282 276 268 270 273 258 242 233 220 233 235 234 222 221
252 254 290 219 212 227 231 205 198 206 208 199 217 219 223 222 228 225 224 207 206 195 196 214 222 225 217 218 219 226 226 221 215 219 198 188 219 185 187 234 158 153 158 138 112 150 178 267 61 160 224 254 255 250 249 253 259 256 256 251 235 226 226 218 221 219 219 227 230 240 250 255 263 267 261 268 271 268 268 254 250 255 252 233 241 244 243 236
239 266 276 237 243 204 215 215 220 210 224 210 200 205 209 216 221 217 233 207 220 228 215 211 219 225 230 222 223 223 224 226 235 245 267 213 227 209 200 193 170 149 174 184 149 154 181 177 184 184 232 244 270 178 236 236 237 242 232 231 230 232 237 239 232 225 223 221 229 229 239 250 266 272 267 263 265 266 266 267 256 248 252 250 242 242 247 250